Вернуться в каталог

SL-16 DEB

АктивенSSO
NORAD 27491·DEBRIS·🇷🇺 Russia

Запущен Jul 10, 1998 с Baikonur Cosmodrome

Loading…

Ближайшие Пролёты (ближайшие 24 часа)

TLE

СвежийSource: Space-Track

Эпоха: Sep 14, 2026, 12:24 UTC

1 27491U 98043L   26257.51680144 -.00000008  00000-0  26756-4 0  9997
2 27491  99.1207 342.4224 0205758  60.9574 301.2022 13.80335741418527

Отслеживайте SL-16 DEB в реальном времени с AllMySat

Download on the App Store